Regional Weather Roundup
Issued by NWS

Home | Current Version | Previous Version | Graphics & Text | Print | Product List | Glossary On
Versions: 1 2 3 4 5 6 7 8 9 10 11 12 13 14 15 16 17 18 19 20 21 22 23 24 25 26 27 28 29 30 31 32 33 34 35 36 37 38 39 40 41 42 43 44 45 46 47 48 49 50
855
ASUS44 KMEG 101600
RWRTN
TENNESSEE HOURLY STATE WEATHER ROUNDUP
NATIONAL WEATHER SERVICE MEMPHIS TN
1000 AM CST SAT DEC 10 2016

TNZ002-004-019-021-049-052-054-088>092-101700-
WEST TENNESSEE

CITY           SKY/WX    TMP DP  RH WIND       PRES   REMARKS
MEMPHIS INTL   MOSUNNY   35  19  52 SE9       30.57F WCI  28
NWS MEMPHIS      N/A     34 N/A N/A MISG        N/A
JACKSON        SUNNY     32  20  61 SE6       30.60S WCI  26
DYERSBURG      SUNNY     30  21  69 SE3       30.60R
UNION CITY     SUNNY     30  21  69 CALM      30.59F
PARIS          SUNNY     28  18  64 VRB7      30.59F WCI  21
$$

TNZ008-025-027-028-033-062-065-066-101700-
NORTH MIDDLE TENNESSEE

CITY           SKY/WX    TMP DP  RH WIND       PRES   REMARKS
NASHVILLE      PTSUNNY   31  20  63 CALM      30.63S
CLARKSVILLE    SUNNY     30  18  60 SE5       30.61F WCI  25
SMYRNA         SUNNY     32  21  64 VRB5      30.64F WCI  27
CROSSVILLE     SUNNY     26  17  68 E6        30.53F WCI  19
$$

TNZ061-075-076-078-094-096-097-101700-
SOUTH MIDDLE TENNESSEE

CITY           SKY/WX    TMP DP  RH WIND       PRES   REMARKS
TULLAHOMA      SUNNY     30  18  59 E7        30.58S WCI  23
WINCHESTER     SUNNY     30  19  64 NE5       30.59S WCI  25
SHELBYVILLE    SUNNY     32  23  69 CALM      30.60F
$$

TNZ017-018-042-046-047-101700-
NORTHEAST TENNESSEE

CITY           SKY/WX    TMP DP  RH WIND       PRES   REMARKS
TRI CITIES     MOSUNNY   28  20  71 CALM      30.55F
$$

TNZ012-013-036-069-073-074-101700-
CENTRAL EAST TENNESSEE

CITY           SKY/WX    TMP DP  RH WIND       PRES   REMARKS
KNOXVILLE      MOSUNNY   32  17  54 N5        30.58S WCI  27
OAK RIDGE      SUNNY     31  18  58 CALM      30.60F
GATLINBURG     SUNNY     28  18  64 CALM      30.58S
$$

TNZ083-085-099-101700-
SOUTHEAST TENNESSEE

CITY           SKY/WX    TMP DP  RH WIND       PRES   REMARKS
CHATTANOOGA    MOSUNNY   34  18  52 NE3       30.60F
$$

SKY/WX REPORTED AS FAIR MEANS FEW OR NO CLOUDS BELOW
12 THOUSAND FEET.





USA.gov is the U.S. government's official web portal to all federal, state and local government web resources and services.